Location: Αθήνα
(37.9839°N, 23.7283°E)
Time: 21:43:02
(UTC+03:00)

EO-79 - Pass Details

Date: 22 June 2024
Orbit: 555 x 577 km, 98.0° (Epoch: 18 July)

Event Time Altitude Azimuth Distance (km) Brightness Sun altitude
Rises 03:59:32 0° 25° (NNE) 2,747 ? -18.9°
Reaches altitude 10° 04:01:57 10° 38° (NE) 1,845 ? -18.6°
Maximum altitude 04:05:20 26° 97° (E) 1,107 ? -18.2°
Enters shadow 04:08:22 12° 152° (SSE) 1,723 ? -17.9°
